Regional Weather Roundup
Issued by NWS

Home | Current Version | Previous Version | Text Only | Print | Product List | Glossary On
Versions: 1 2 3 4 5 6 7 8 9 10 11 12 13 14 15 16 17 18 19 20 21 22 23 24 25 26 27 28 29 30 31 32 33 34 35 36 37 38 39 40 41 42 43 44 45 46 47 48
000
ASUS42 KFFC 292103
RWRGA
WEATHER ROUNDUP FOR GEORGIA
NATIONAL WEATHER SERVICE PEACHTREE CITY GA
400 PM EST THU JAN 29 2015

NOTE: "FAIR" INDICATES FEW OR NO CLOUDS BELOW 12,000 FEET WITH NO
SIGNIFICANT WEATHER AND/OR OBSTRUCTIONS TO VISIBILITY.

* = USE WITH CAUTION. THE STATIONS MARKED WITH AN ASTERISK MAY NOT
REPORT WEATHER SUCH AS PRECIPITATION, FOG, OR THUNDER AND ARE NOT
QUALITY CONTROLLED BY NWS.

THE REMARK "TC" DENOTES TEMPERATURE READING IN DEGREES CELSIUS.

GAZ001>058-292200-
NORTH GEORGIA

CITY           SKY/WX    TMP DP  RH WIND       PRES   REMARKS
ATLANTA        CLOUDY    59  25  27 S12       30.12F
ATHENS         PTSUNNY   57  24  28 S7        30.13F
CHAMBLEE       PTSUNNY   58  27  30 S10       30.11F
PEACHTREE CITY CLOUDY    59  26  28 VRB6      30.14F
ROME           PTSUNNY   62  35  36 S13       30.07F
WEST ATLANTA   PTSUNNY   59  26  28 S8        30.11F
GAINESVILLE    PTSUNNY   55  25  31 SW10      30.12F
CARTERSVILLE   PTSUNNY   57  31  37 VRB6      30.11F


CITY           SKY/WX    TMP DP  RH WIND       PRES   REMARKS
DALTON*        SUNNY     57  34  41 S3        30.08S
LAWRENCEVILLE* SUNNY     55  27  33 S6        30.12F
MARIETTA       CLOUDY    58  28  32 SW9       30.11F
KENNESAW*      PTSUNNY  N/A N/A N/A S9        30.11F
$$

GAZ059>098-102>109-292200-
CENTRAL GEORGIA

CITY           SKY/WX    TMP DP  RH WIND       PRES   REMARKS
AUGUSTA-BUSH   SUNNY     58  24  27 SW13      30.19F
AUGUSTA-DANIEL SUNNY     57  23  26 S12       30.18F
COLUMBUS       MOSUNNY   62  32  32 S12       30.17F
MACON          PTSUNNY   57  32  38 SW8       30.18F
ROBINS AFB     PTSUNNY   60  29  31 S13       30.19F


CITY           SKY/WX    TMP DP  RH WIND       PRES   REMARKS
LAGRANGE*      MOSUNNY   64  37  37 S10G17    30.14S
SYLVANIA*      PTSUNNY   58  36  43 SW5       30.22F
MILLEDGEVILLE* PTSUNNY   59  32  36 CALM      30.17F
$$

GAZ099>101-110>166-292200-
SOUTH GEORGIA

CITY           SKY/WX    TMP DP  RH WIND       PRES   REMARKS
SAVANNAH       CLOUDY    60  40  47 S10       30.22F
VALDOSTA       SUNNY     66  32  28 VRB5      30.23S
ALMA           MOSUNNY   63  36  36 SW7       30.21F
ST SIMONS      CLOUDY    56  44  64 E7        30.24S
FT STEWART     PTSUNNY   63  37  38 VRB6      30.20F
ALBANY         SUNNY     62  30  29 SW10      30.23F
HUNTER AFB     PTSUNNY   58  43  57 SE7       30.22S
MOODY AFB      SUNNY     65  30  26 SW9       30.22F
BRUNSWICK      CLOUDY    61  45  55 SE7       30.24F


CITY           SKY/WX    TMP DP  RH WIND       PRES   REMARKS
BAINBRIDGE*    SUNNY     66  37  34 SW7       30.23F
MOULTRIE*      SUNNY     63  32  31 S7        30.23F
VIDALIA*       PTSUNNY   61  34  36 SW12      30.21F
WAYCROSS*      MOSUNNY   67  42  40 SW9       30.22F
DOUGLAS*       MOSUNNY   64  30  27 SW6       30.23F
$$


USA.gov is the U.S. government's official web portal to all federal, state and local government web resources and services.